Location: Caltech
(34.1382°N, 118.1253°W)
Time: 10:52:21
(UTC-07:00)

Lacrosse 5 - Visible Passes

Search period start: 27 May 2015 00:00
Search period end: 06 June 2015 00:00
Orbit: 714 x 722 km, 57.0° (Epoch: 24 May)

Date Brightness Start Highest point End Pass type
(mag) Time Alt. Az. Time Alt. Az. Time Alt. Az.
27 May 3.6 20:33:56 10° NNW 20:37:43 21° NE 20:41:35 10° E visible
27 May 1.9 22:16:04 10° NW 22:21:03 62° SW 22:21:32 58° SSW visible
28 May 1.9 21:22:30 10° NW 21:27:33 67° NE 21:30:03 29° SE visible
28 May 4.1 23:07:10 10° W 23:09:14 14° WSW 23:09:14 14° WSW visible
29 May 2.9 20:29:15 10° NNW 20:33:52 35° NE 20:38:30 10° ESE visible
29 May 3.0 22:12:19 10° WNW 22:16:46 31° WSW 22:17:48 28° SW visible
30 May 2.1 21:18:21 10° NW 21:23:22 64° SW 21:26:27 23° SSE visible
31 May 2.0 20:24:49 10° NNW 20:29:52 64° NE 20:34:52 10° SE visible
31 May 4.0 22:09:22 10° W 22:12:24 15° WSW 22:14:20 12° SW visible
01 Jun 3.2 21:14:35 10° WNW 21:19:05 32° WSW 21:23:06 12° S visible
02 Jun 2.2 20:20:40 10° NW 20:25:41 67° SW 20:30:40 10° SSE visible
03 Jun 4.2 21:11:34 10° W 21:14:43 16° WSW 21:17:40 10° SSW visible
